When you browse on this site, cookies collect data to enhance your experience and personalize the content and advertising you see.
Visit our Privacy Policy to learn more. By continuing to use the site, you agree to this use of cookies and data.
  • In Deutschland
  • Länderverzeichnis
  • Für 7 Tage
  • Wassertemperatur
  • Wetterkarte
  • Widgets
  • user-avatar
    Anmelden

    Stündliche Wetter Qala i Naw

    Heute, 23 Januar, Donnerstag

    Zeit Temperatur Niederschläge Wind Luftdruck Luftfeuchtigkeit
    00:00 0°C° 0 mm 3 m/S 685 mmHg 64%
    01:00 0°C° 0 mm 3 m/S 684 mmHg 64%
    02:00 0°C° 0 mm 3 m/S 684 mmHg 63%
    03:00 -1°C° 0 mm 4 m/S 683 mmHg 63%
    04:00 -1°C° 0 mm 4 m/S 683 mmHg 63%
    05:00 0°C° 0 mm 4 m/S 683 mmHg 64%
    06:00 0°C° 0 mm 4 m/S 683 mmHg 65%
    07:00 0°C° 0 mm 4 m/S 683 mmHg 66%
    08:00 +1°C° 0 mm 4 m/S 683 mmHg 69%
    09:00 +2°C° 0 mm 5 m/S 682 mmHg 72%
    10:00 +3°C° 0 mm 5 m/S 682 mmHg 75%
    11:00 +3°C° 0 mm 5 m/S 681 mmHg 77%
    12:00 +5°C° 0 mm 5 m/S 680 mmHg 80%
    13:00 +6°C° 0 mm 5 m/S 679 mmHg 82%
    14:00 +5°C° 0.1 mm 4 m/S 679 mmHg 82%
    15:00 +5°C° 0.1 mm 4 m/S 679 mmHg 82%
    16:00 +5°C° 0.1 mm 3 m/S 678 mmHg 82%
    17:00 +4°C° 0.1 mm 4 m/S 678 mmHg 81%
    18:00 +4°C° 0.1 mm 4 m/S 678 mmHg 80%
    19:00 +4°C° 0.1 mm 4 m/S 678 mmHg 79%
    20:00 +4°C° 0.2 mm 4 m/S 678 mmHg 80%
    21:00 +4°C° 0.2 mm 3 m/S 678 mmHg 81%
    22:00 +4°C° 0.2 mm 3 m/S 677 mmHg 82%
    23:00 +5°C° 2.7 mm 2 m/S 677 mmHg 86%

    Morgen, 24 Januar, Freitag

    Zeit Temperatur Niederschläge Wind Luftdruck Luftfeuchtigkeit
    00:00 +4°C° 2.7 mm 2 m/S 676 mmHg 91%
    01:00 +5°C° 2.7 mm 1 m/S 676 mmHg 96%
    02:00 +4°C° 1.4 mm 2 m/S 676 mmHg 93%
    03:00 +3°C° 1.4 mm 3 m/S 676 mmHg 89%
    04:00 +4°C° 1.4 mm 4 m/S 676 mmHg 86%
    05:00 +3°C° 1.1 mm 3 m/S 676 mmHg 88%
    06:00 +3°C° 1.1 mm 3 m/S 677 mmHg 91%
    07:00 +4°C° 1.1 mm 2 m/S 677 mmHg 93%
    08:00 +5°C° 0.3 mm 2 m/S 678 mmHg 91%
    09:00 +5°C° 0.3 mm 3 m/S 678 mmHg 89%
    10:00 +7°C° 0.3 mm 3 m/S 679 mmHg 87%
    11:00 +7°C° 0.1 mm 3 m/S 679 mmHg 82%
    12:00 +8°C° 0.1 mm 2 m/S 679 mmHg 78%
    13:00 +9°C° 0.1 mm 2 m/S 679 mmHg 73%
    14:00 +8°C° 0 mm 2 m/S 679 mmHg 75%
    15:00 +7°C° 0 mm 2 m/S 679 mmHg 77%
    16:00 +8°C° 0 mm 1 m/S 679 mmHg 78%
    17:00 +6°C° 0 mm 2 m/S 680 mmHg 79%
    18:00 +5°C° 0 mm 2 m/S 681 mmHg 79%
    19:00 +4°C° 0 mm 2 m/S 681 mmHg 79%
    20:00 +4°C° 0 mm 2 m/S 681 mmHg 76%
    21:00 +3°C° 0 mm 2 m/S 682 mmHg 74%
    22:00 +3°C° 0 mm 2 m/S 682 mmHg 71%
    23:00 +3°C° 0 mm 2 m/S 682 mmHg 70%

    übermorgen, 25 Januar, Samstag

    Zeit Temperatur Niederschläge Wind Luftdruck Luftfeuchtigkeit
    00:00 +3°C° 0 mm 2 m/S 682 mmHg 69%
    01:00 +2°C° 0 mm 2 m/S 682 mmHg 68%
    02:00 +2°C° 0 mm 2 m/S 682 mmHg 66%
    03:00 +2°C° 0 mm 2 m/S 682 mmHg 64%
    04:00 +2°C° 0 mm 2 m/S 682 mmHg 61%
    05:00 +2°C° 0 mm 2 m/S 682 mmHg 60%
    06:00 +2°C° 0 mm 2 m/S 682 mmHg 58%
    07:00 +2°C° 0 mm 2 m/S 683 mmHg 56%
    08:00 +3°C° 0 mm 2 m/S 683 mmHg 54%
    09:00 +5°C° 0 mm 1 m/S 684 mmHg 53%
    10:00 +7°C° 0 mm 1 m/S 684 mmHg 52%
    11:00 +6°C° 0 mm 2 m/S 684 mmHg 56%
    12:00 +6°C° 0 mm 2 m/S 683 mmHg 60%
    13:00 +5°C° 0 mm 3 m/S 683 mmHg 64%
    14:00 +5°C° 0 mm 3 m/S 683 mmHg 70%
    15:00 +4°C° 0 mm 3 m/S 683 mmHg 77%
    16:00 +3°C° 0 mm 3 m/S 683 mmHg 83%
    17:00 +3°C° 0 mm 3 m/S 684 mmHg 86%
    18:00 +2°C° 0 mm 3 m/S 684 mmHg 89%
    19:00 +3°C° 0 mm 2 m/S 684 mmHg 91%
    20:00 +3°C° 0.1 mm 2 m/S 685 mmHg 93%
    21:00 +2°C° 0.1 mm 2 m/S 685 mmHg 94%
    22:00 +3°C° 0.1 mm 1 m/S 685 mmHg 96%
    23:00 +3°C° 0 mm 1 m/S 684 mmHg 95%

    26 Januar, Sonntag

    Zeit Temperatur Niederschläge Wind Luftdruck Luftfeuchtigkeit
    00:00 +3°C° 0 mm 1 m/S 684 mmHg 95%
    01:00 +3°C° 0 mm 1 m/S 684 mmHg 95%
    02:00 +3°C° 0 mm 1 m/S 683 mmHg 93%
    03:00 +3°C° 0 mm 1 m/S 683 mmHg 92%
    04:00 +3°C° 0 mm 1 m/S 683 mmHg 91%
    05:00 +2°C° 0 mm 1 m/S 683 mmHg 90%
    06:00 +2°C° 0 mm 1 m/S 683 mmHg 89%
    07:00 +2°C° 0 mm 1 m/S 683 mmHg 88%
    08:00 +3°C° 0 mm 1 m/S 683 mmHg 84%
    09:00 +3°C° 0 mm 1 m/S 683 mmHg 80%
    10:00 +3°C° 0 mm 1 m/S 683 mmHg 76%
    11:00 +4°C° 0 mm 1 m/S 682 mmHg 74%
    12:00 +4°C° 0 mm 1 m/S 682 mmHg 72%
    13:00 +4°C° 0 mm 2 m/S 681 mmHg 70%
    14:00 +4°C° 0 mm 2 m/S 681 mmHg 71%
    15:00 +4°C° 0 mm 2 m/S 681 mmHg 72%
    16:00 +4°C° 0 mm 2 m/S 681 mmHg 73%
    17:00 +4°C° 0 mm 1 m/S 681 mmHg 77%
    18:00 +4°C° 0 mm 1 m/S 681 mmHg 81%
    19:00 +3°C° 0 mm 1 m/S 682 mmHg 85%
    20:00 +3°C° 0 mm 1 m/S 682 mmHg 85%
    21:00 +3°C° 0 mm 1 m/S 682 mmHg 86%
    22:00 +2°C° 0 mm 1 m/S 682 mmHg 86%
    23:00 +2°C° 0 mm 1 m/S 682 mmHg 87%

    27 Januar, Montag

    Zeit Temperatur Niederschläge Wind Luftdruck Luftfeuchtigkeit
    00:00 +1°C° 0 mm 0 m/S 682 mmHg 87%
    01:00 +1°C° 0 mm 0 m/S 682 mmHg 87%
    02:00 +1°C° 0 mm 0 m/S 682 mmHg 86%
    03:00 +1°C° 0 mm 0 m/S 681 mmHg 84%
    04:00 +1°C° 0 mm 1 m/S 681 mmHg 82%
    05:00 +1°C° 0 mm 1 m/S 682 mmHg 80%
    06:00 +1°C° 0 mm 1 m/S 682 mmHg 78%
    07:00 +1°C° 0 mm 1 m/S 682 mmHg 75%
    08:00 +1°C° 0 mm 0 m/S 682 mmHg 71%
    09:00 +2°C° 0 mm 0 m/S 682 mmHg 66%
    10:00 +3°C° 0 mm 0 m/S 683 mmHg 61%
    11:00 +5°C° 0 mm 1 m/S 682 mmHg 61%
    12:00 +5°C° 0 mm 1 m/S 682 mmHg 61%
    13:00 +6°C° 0 mm 1 m/S 681 mmHg 61%
    14:00 +5°C° 0 mm 2 m/S 682 mmHg 63%
    15:00 +5°C° 0 mm 2 m/S 682 mmHg 64%
    16:00 +5°C° 0 mm 2 m/S 683 mmHg 66%
    17:00 +3°C° 0.1 mm 3 m/S 683 mmHg 70%
    18:00 +3°C° 0.1 mm 3 m/S 684 mmHg 74%
    19:00 +3°C° 0.1 mm 3 m/S 685 mmHg 78%
    20:00 +1°C° 0.3 mm 4 m/S 686 mmHg 83%
    21:00 0°C° 0.3 mm 4 m/S 686 mmHg 88%
    22:00 0°C° 0.3 mm 5 m/S 687 mmHg 93%
    23:00 -1°C° 0.4 mm 5 m/S 687 mmHg 90%

    28 Januar, Dienstag

    Zeit Temperatur Niederschläge Wind Luftdruck Luftfeuchtigkeit
    00:00 -1°C° 0.4 mm 5 m/S 687 mmHg 87%
    01:00 -1°C° 0.4 mm 5 m/S 687 mmHg 84%
    02:00 -2°C° 0.2 mm 4 m/S 687 mmHg 84%
    03:00 -1°C° 0.2 mm 3 m/S 688 mmHg 84%
    04:00 -2°C° 0.2 mm 2 m/S 688 mmHg 83%
    05:00 -2°C° 0.2 mm 3 m/S 688 mmHg 86%
    06:00 -2°C° 0.2 mm 3 m/S 689 mmHg 88%
    07:00 -4°C° 0.2 mm 4 m/S 689 mmHg 91%
    08:00 -3°C° 0.2 mm 4 m/S 689 mmHg 86%
    09:00 -3°C° 0.2 mm 4 m/S 689 mmHg 82%
    10:00 -2°C° 0.2 mm 5 m/S 689 mmHg 77%
    11:00 -2°C° 0.1 mm 5 m/S 689 mmHg 73%
    12:00 -1°C° 0.1 mm 5 m/S 688 mmHg 69%
    13:00 -1°C° 0.1 mm 5 m/S 688 mmHg 65%
    14:00 -1°C° 0.1 mm 5 m/S 688 mmHg 63%
    15:00 -1°C° 0.1 mm 5 m/S 688 mmHg 62%
    16:00 -2°C° 0.1 mm 5 m/S 688 mmHg 60%
    17:00 -3°C° 0 mm 4 m/S 688 mmHg 62%
    18:00 -2°C° 0 mm 3 m/S 688 mmHg 64%
    19:00 -3°C° 0 mm 2 m/S 689 mmHg 66%
    20:00 -4°C° 0 mm 2 m/S 689 mmHg 65%
    21:00 -4°C° 0 mm 2 m/S 689 mmHg 65%
    22:00 -5°C° 0 mm 2 m/S 689 mmHg 65%
    23:00 -5°C° 0 mm 2 m/S 688 mmHg 64%
    Mehr zeigen